Time,TemperatureF,DewpointF,PressureIn,WindDirection,WindDirectionDegrees,WindSpeedMPH,WindSpeedGustMPH,Humidity,HourlyPrecipIn,Conditions,Clouds,dailyrainin,SoftwareType,DateUTC
2013-04-18 00:02:00,52.6,34.9,29.78,ENE,68,1.1,2.5,51,0.00,,,0.00,WUHU216HW,2013-04-18 07:02:00,
2013-04-18 00:07:00,52.6,33.4,29.78,ENE,68,2.5,2.7,48,0.00,,,0.00,WUHU216HW,2013-04-18 07:07:00,
2013-04-18 00:12:00,52.7,34.1,29.79,WSW,248,1.6,2.7,49,0.00,,,0.00,WUHU216HW,2013-04-18 07:12:00,
2013-04-18 00:17:00,52.7,34.7,29.79,South,180,0.0,3.1,50,0.00,,,0.00,WUHU216HW,2013-04-18 07:17:00,
2013-04-18 00:22:00,52.7,36.0,29.79,ENE,68,1.1,3.1,53,0.00,,,0.00,WUHU216HW,2013-04-18 07:22:00,
2013-04-18 00:27:00,52.6,35.8,29.79,NE,45,0.0,1.1,53,0.00,,,0.00,WUHU216HW,2013-04-18 07:27:00,
2013-04-18 00:32:00,52.2,36.0,29.80,NE,45,1.6,2.2,54,0.00,,,0.00,WUHU216HW,2013-04-18 07:32:00,
2013-04-18 00:37:00,52.2,35.6,29.80,East,90,1.3,2.2,53,0.00,,,0.00,WUHU216HW,2013-04-18 07:37:00,
2013-04-18 00:42:00,51.8,35.6,29.80,East,90,1.1,1.6,54,0.00,,,0.00,WUHU216HW,2013-04-18 07:42:00,
2013-04-18 00:47:00,51.7,34.6,29.80,ENE,68,0.9,1.3,52,0.00,,,0.00,WUHU216HW,2013-04-18 07:47:00,
2013-04-18 00:52:00,51.7,33.7,29.80,ENE,68,0.4,1.1,50,0.00,,,0.00,WUHU216HW,2013-04-18 07:52:00,
2013-04-18 00:57:00,51.7,33.7,29.81,ENE,68,1.1,1.1,50,0.00,,,0.00,WUHU216HW,2013-04-18 07:57:00,
2013-04-18 01:02:00,51.5,33.9,29.80,NNE,23,0.4,1.1,51,0.00,,,0.00,WUHU216HW,2013-04-18 08:02:00,
2013-04-18 01:07:00,51.5,34.4,29.80,WNW,293,0.0,1.1,52,0.00,,,0.00,WUHU216HW,2013-04-18 08:07:00,
2013-04-18 01:12:00,51.1,34.1,29.80,West,270,0.0,1.1,52,0.00,,,0.00,WUHU216HW,2013-04-18 08:12:00,
2013-04-18 01:17:00,51.1,32.7,29.80,NE,45,0.7,1.1,49,0.00,,,0.00,WUHU216HW,2013-04-18 08:17:00,
2013-04-18 01:22:00,50.9,32.0,29.80,ENE,68,0.7,0.9,48,0.00,,,0.00,WUHU216HW,2013-04-18 08:22:00,
2013-04-18 01:27:00,50.8,31.2,29.80,SE,135,1.1,1.3,47,0.00,,,0.00,WUHU216HW,2013-04-18 08:27:00,
2013-04-18 01:32:00,50.8,32.3,29.80,ESE,113,0.0,1.3,49,0.00,,,0.00,WUHU216HW,2013-04-18 08:32:00,
2013-04-18 01:37:00,50.8,33.3,29.81,WSW,248,2.5,2.5,51,0.00,,,0.00,WUHU216HW,2013-04-18 08:37:00,
2013-04-18 01:42:00,50.6,33.1,29.81,WSW,248,0.2,2.5,51,0.00,,,0.00,WUHU216HW,2013-04-18 08:42:00,
2013-04-18 01:47:00,50.6,33.1,29.80,ESE,113,0.0,2.5,51,0.00,,,0.00,WUHU216HW,2013-04-18 08:47:00,
2013-04-18 01:52:00,50.4,33.0,29.81,North,0,1.1,1.1,51,0.00,,,0.00,WUHU216HW,2013-04-18 08:52:00,
2013-04-18 01:57:00,50.0,33.1,29.81,NNE,23,3.1,3.1,52,0.00,,,0.00,WUHU216HW,2013-04-18 08:57:00,
2013-04-18 02:02:00,49.9,32.5,29.80,NE,45,0.9,3.8,51,0.00,,,0.00,WUHU216HW,2013-04-18 09:02:00,
2013-04-18 02:07:00,49.9,32.0,29.80,East,90,0.4,3.8,50,0.00,,,0.00,WUHU216HW,2013-04-18 09:07:00,
2013-04-18 02:12:00,51.3,30.0,29.80,NNE,23,1.6,2.5,44,0.00,,,0.00,WUHU216HW,2013-04-18 09:12:00,
2013-04-18 02:17:00,52.7,31.9,29.80,NNE,23,1.8,2.5,45,0.00,,,0.00,WUHU216HW,2013-04-18 09:17:00,
2013-04-18 02:22:00,54.2,26.9,29.80,ENE,68,3.4,3.8,35,0.00,,,0.00,WUHU216HW,2013-04-18 09:22:00,
2013-04-18 02:27:00,56.7,25.7,29.80,ENE,68,3.8,6.0,30,0.00,,,0.00,WUHU216HW,2013-04-18 09:27:00,
2013-04-18 02:32:00,58.0,25.8,29.80,ENE,68,4.9,6.0,29,0.00,,,0.00,WUHU216HW,2013-04-18 09:32:00,
2013-04-18 02:36:00,58.3,26.1,29.80,ENE,68,1.8,4.9,29,0.00,,,0.00,WUHU216HW,2013-04-18 09:36:00,
2013-04-18 02:41:00,58.9,24.7,29.79,ENE,68,5.4,5.4,27,0.00,,,0.00,WUHU216HW,2013-04-18 09:41:00,
2013-04-18 02:46:00,59.8,23.5,29.79,East,90,4.5,6.9,25,0.00,,,0.00,WUHU216HW,2013-04-18 09:46:00,
2013-04-18 02:51:00,59.9,22.7,29.79,NE,45,5.6,6.9,24,0.00,,,0.00,WUHU216HW,2013-04-18 09:51:00,
2013-04-18 02:56:00,59.9,22.7,29.79,ENE,68,5.1,6.9,24,0.00,,,0.00,WUHU216HW,2013-04-18 09:56:00,
2013-04-18 03:01:00,60.1,22.9,29.79,ENE,68,2.7,6.3,24,0.00,,,0.00,WUHU216HW,2013-04-18 10:01:00,
2013-04-18 03:06:00,59.9,22.7,29.79,East,90,3.8,7.2,24,0.00,,,0.00,WUHU216HW,2013-04-18 10:06:00,
2013-04-18 03:11:00,60.1,22.9,29.78,ENE,68,4.0,7.2,24,0.00,,,0.00,WUHU216HW,2013-04-18 10:11:00,
2013-04-18 03:16:00,60.3,22.1,29.79,ENE,68,4.5,6.0,23,0.00,,,0.00,WUHU216HW,2013-04-18 10:16:00,
2013-04-18 03:21:00,60.5,22.1,29.78,East,90,4.5,6.7,23,0.00,,,0.00,WUHU216HW,2013-04-18 10:21:00,
2013-04-18 03:26:00,60.5,22.1,29.78,NE,45,3.6,6.7,23,0.00,,,0.00,WUHU216HW,2013-04-18 10:26:00,
2013-04-18 03:31:00,60.3,23.0,29.78,ESE,113,2.5,5.1,24,0.00,,,0.00,WUHU216HW,2013-04-18 10:31:00,
2013-04-18 03:36:00,60.1,22.9,29.78,ENE,68,3.4,5.1,24,0.00,,,0.00,WUHU216HW,2013-04-18 10:36:00,
2013-04-18 03:41:00,60.1,22.9,29.79,ENE,68,2.5,4.7,24,0.00,,,0.00,WUHU216HW,2013-04-18 10:41:00,
2013-04-18 03:46:00,60.3,22.1,29.79,North,0,1.8,4.7,23,0.00,,,0.00,WUHU216HW,2013-04-18 10:46:00,
2013-04-18 03:51:00,60.5,22.1,29.79,ENE,68,2.2,5.1,23,0.00,,,0.00,WUHU216HW,2013-04-18 10:51:00,
2013-04-18 03:56:00,60.3,22.1,29.79,East,90,2.5,5.1,23,0.00,,,0.00,WUHU216HW,2013-04-18 10:56:00,
2013-04-18 04:01:00,60.3,22.1,29.79,ENE,68,1.1,4.3,23,0.00,,,0.00,WUHU216HW,2013-04-18 11:01:00,
2013-04-18 04:06:00,59.9,22.7,29.79,ENE,68,1.1,4.0,24,0.00,,,0.00,WUHU216HW,2013-04-18 11:06:00,
2013-04-18 04:11:00,59.6,22.3,29.79,ENE,68,1.8,3.4,24,0.00,,,0.00,WUHU216HW,2013-04-18 11:11:00,
2013-04-18 04:16:00,59.2,22.1,29.80,East,90,1.1,2.5,24,0.00,,,0.00,WUHU216HW,2013-04-18 11:16:00,
2013-04-18 04:22:00,59.0,21.9,29.80,ENE,68,2.0,2.5,24,0.00,,,0.00,WUHU216HW,2013-04-18 11:22:00,
2013-04-18 04:27:00,59.0,21.9,29.80,East,90,1.3,2.9,24,0.00,,,0.00,WUHU216HW,2013-04-18 11:27:00,
2013-04-18 04:32:00,58.9,22.7,29.80,ENE,68,1.6,2.9,25,0.00,,,0.00,WUHU216HW,2013-04-18 11:32:00,
2013-04-18 04:37:00,58.7,24.5,29.80,SSE,158,1.6,2.2,27,0.00,,,0.00,WUHU216HW,2013-04-18 11:37:00,
2013-04-18 04:42:00,58.0,25.8,29.81,ESE,113,1.1,2.2,29,0.00,,,0.00,WUHU216HW,2013-04-18 11:42:00,
2013-04-18 04:47:00,56.9,25.7,29.80,ESE,113,0.4,2.2,30,0.00,,,0.00,WUHU216HW,2013-04-18 11:47:00,
2013-04-18 04:52:00,56.5,24.5,29.81,ESE,113,1.6,2.7,29,0.00,,,0.00,WUHU216HW,2013-04-18 11:52:00,
2013-04-18 04:57:00,56.5,25.5,29.80,ESE,113,0.4,2.7,30,0.00,,,0.00,WUHU216HW,2013-04-18 11:57:00,
2013-04-18 05:01:00,56.2,25.8,29.80,East,90,0.0,2.0,31,0.00,,,0.00,WUHU216HW,2013-04-18 12:01:00,
2013-04-18 05:06:00,55.8,26.2,29.80,North,0,1.1,1.8,32,0.00,,,0.00,WUHU216HW,2013-04-18 12:06:00,
2013-04-18 05:11:00,55.1,25.6,29.81,North,0,0.4,1.8,32,0.00,,,0.00,WUHU216HW,2013-04-18 12:11:00,
2013-04-18 05:16:00,54.5,26.6,29.81,North,0,0.0,1.3,34,0.00,,,0.00,WUHU216HW,2013-04-18 12:16:00,
2013-04-18 05:21:00,54.0,26.1,29.81,NNE,23,1.1,1.1,34,0.00,,,0.00,WUHU216HW,2013-04-18 12:21:00,
2013-04-18 05:26:00,53.3,26.8,29.81,North,0,0.4,1.8,36,0.00,,,0.00,WUHU216HW,2013-04-18 12:26:00,
2013-04-18 05:31:00,52.7,27.0,29.81,North,0,0.4,1.8,37,0.00,,,0.00,WUHU216HW,2013-04-18 12:31:00,
2013-04-18 05:36:00,52.2,27.2,29.81,ENE,68,0.7,1.6,38,0.00,,,0.00,WUHU216HW,2013-04-18 12:36:00,
2013-04-18 05:41:00,51.8,26.9,29.81,NE,45,0.2,2.5,38,0.00,,,0.00,WUHU216HW,2013-04-18 12:41:00,
2013-04-18 05:46:00,51.5,27.3,29.81,North,0,0.4,2.5,39,0.00,,,0.00,WUHU216HW,2013-04-18 12:46:00,
2013-04-18 05:51:00,51.1,26.9,29.81,NNE,23,0.4,1.1,39,0.00,,,0.00,WUHU216HW,2013-04-18 12:51:00,
2013-04-18 05:57:00,50.8,27.3,29.82,SE,135,0.0,0.7,40,0.00,,,0.00,WUHU216HW,2013-04-18 12:57:00,
2013-04-18 06:02:00,50.4,27.6,29.82,NE,45,0.0,0.9,41,0.00,,,0.00,WUHU216HW,2013-04-18 13:02:00,
2013-04-18 06:07:00,50.4,27.6,29.82,ESE,113,0.2,0.9,41,0.00,,,0.00,WUHU216HW,2013-04-18 13:07:00,
2013-04-18 06:12:00,50.2,27.4,29.82,ESE,113,0.7,1.6,41,0.00,,,0.00,WUHU216HW,2013-04-18 13:12:00,
2013-04-18 06:17:00,50.2,27.4,29.82,East,90,0.7,1.6,41,0.00,,,0.00,WUHU216HW,2013-04-18 13:17:00,
2013-04-18 06:22:00,50.8,27.3,29.83,East,90,0.0,1.1,40,0.00,,,0.00,WUHU216HW,2013-04-18 13:22:00,
2013-04-18 06:27:00,50.9,28.0,29.83,SE,135,0.7,1.1,41,0.00,,,0.00,WUHU216HW,2013-04-18 13:27:00,
2013-04-18 06:32:00,51.3,26.4,29.83,East,90,1.1,1.3,38,0.00,,,0.00,WUHU216HW,2013-04-18 13:32:00,
2013-04-18 06:37:00,52.6,26.2,29.83,ENE,68,1.3,1.8,36,0.00,,,0.00,WUHU216HW,2013-04-18 13:37:00,
2013-04-18 06:42:00,54.0,25.4,29.83,ESE,113,0.9,3.4,33,0.00,,,0.00,WUHU216HW,2013-04-18 13:42:00,
2013-04-18 06:47:00,54.5,22.9,29.83,ENE,68,2.5,3.4,29,0.00,,,0.00,WUHU216HW,2013-04-18 13:47:00,
2013-04-18 06:52:00,56.0,22.1,29.83,ESE,113,5.4,6.3,27,0.00,,,0.00,WUHU216HW,2013-04-18 13:52:00,
2013-04-18 06:57:00,57.8,20.8,29.84,ESE,113,6.9,6.9,24,0.00,,,0.00,WUHU216HW,2013-04-18 13:57:00,
2013-04-18 07:02:00,59.2,21.1,29.84,East,90,5.4,6.9,23,0.00,,,0.00,WUHU216HW,2013-04-18 14:02:00,
2013-04-18 07:07:00,59.9,20.7,29.84,ENE,68,4.5,6.9,22,0.00,,,0.00,WUHU216HW,2013-04-18 14:07:00,
2013-04-18 07:12:00,60.8,20.6,29.84,ENE,68,5.4,9.8,21,0.00,,,0.00,WUHU216HW,2013-04-18 14:12:00,
2013-04-18 07:17:00,61.2,20.9,29.84,ENE,68,6.5,11.9,21,0.00,,,0.00,WUHU216HW,2013-04-18 14:17:00,
2013-04-18 07:22:00,62.1,21.6,29.84,ENE,68,7.4,11.9,21,0.00,,,0.00,WUHU216HW,2013-04-18 14:22:00,
2013-04-18 07:27:00,63.7,20.3,29.84,ENE,68,6.9,9.8,19,0.00,,,0.00,WUHU216HW,2013-04-18 14:27:00,
2013-04-18 07:32:00,64.4,20.9,29.85,East,90,7.6,10.7,19,0.00,,,0.00,WUHU216HW,2013-04-18 14:32:00,
2013-04-18 07:37:00,65.0,19.8,29.85,ENE,68,9.2,10.7,18,0.00,,,0.00,WUHU216HW,2013-04-18 14:37:00,
2013-04-18 07:42:00,65.5,20.2,29.85,ENE,68,10.5,10.7,18,0.00,,,0.00,WUHU216HW,2013-04-18 14:42:00,
2013-04-18 07:47:00,66.1,20.6,29.85,ENE,68,8.1,13.9,18,0.00,,,0.00,WUHU216HW,2013-04-18 14:47:00,
2013-04-18 07:52:00,66.6,19.5,29.85,ENE,68,8.7,13.9,17,0.00,,,0.00,WUHU216HW,2013-04-18 14:52:00,
2013-04-18 07:57:00,67.0,19.8,29.85,ENE,68,5.8,11.0,17,0.00,,,0.00,WUHU216HW,2013-04-18 14:57:00,
2013-04-18 08:02:00,67.3,20.2,29.85,ENE,68,4.5,12.8,17,0.00,,,0.00,WUHU216HW,2013-04-18 15:02:00,
2013-04-18 08:07:00,67.5,18.7,29.85,East,90,10.3,13.0,16,0.00,,,0.00,WUHU216HW,2013-04-18 15:07:00,
2013-04-18 08:12:00,67.3,18.6,29.85,East,90,9.2,13.0,16,0.00,,,0.00,WUHU216HW,2013-04-18 15:12:00,
2013-04-18 08:17:00,67.7,18.8,29.85,East,90,7.6,9.8,16,0.00,,,0.00,WUHU216HW,2013-04-18 15:17:00,
2013-04-18 08:22:00,67.9,19.0,29.85,East,90,6.5,12.1,16,0.00,,,0.00,WUHU216HW,2013-04-18 15:22:00,
2013-04-18 08:27:00,68.6,19.5,29.85,ENE,68,8.9,12.1,16,0.00,,,0.00,WUHU216HW,2013-04-18 15:27:00,
2013-04-18 08:32:00,69.1,18.4,29.85,NNE,23,7.6,16.3,15,0.00,,,0.00,WUHU216HW,2013-04-18 15:32:00,
2013-04-18 08:37:00,69.8,15.7,29.86,East,90,8.5,16.3,13,0.00,,,0.00,WUHU216HW,2013-04-18 15:37:00,
2013-04-18 08:42:00,70.2,15.9,29.86,ENE,68,8.7,12.5,13,0.00,,,0.00,WUHU216HW,2013-04-18 15:42:00,
2013-04-18 08:47:00,70.2,15.9,29.85,ENE,68,8.3,15.7,13,0.00,,,0.00,WUHU216HW,2013-04-18 15:47:00,
2013-04-18 08:52:00,70.0,19.1,29.85,ENE,68,14.8,15.7,15,0.00,,,0.00,WUHU216HW,2013-04-18 15:52:00,
2013-04-18 08:57:00,70.0,17.5,29.85,ENE,68,6.5,14.8,14,0.00,,,0.00,WUHU216HW,2013-04-18 15:57:00,
2013-04-18 09:02:00,70.0,19.1,29.85,ESE,113,8.3,14.8,15,0.00,,,0.00,WUHU216HW,2013-04-18 16:02:00,
2013-04-18 09:07:00,69.8,18.9,29.85,East,90,11.4,14.5,15,0.00,,,0.00,WUHU216HW,2013-04-18 16:07:00,
2013-04-18 09:12:00,69.7,17.2,29.85,ESE,113,11.9,13.0,14,0.00,,,0.00,WUHU216HW,2013-04-18 16:12:00,
2013-04-18 09:17:00,69.8,18.9,29.85,SSE,158,8.9,13.9,15,0.00,,,0.00,WUHU216HW,2013-04-18 16:17:00,
2013-04-18 09:22:00,70.0,15.9,29.85,East,90,9.4,13.9,13,0.00,,,0.00,WUHU216HW,2013-04-18 16:22:00,
2013-04-18 09:27:00,69.8,15.7,29.85,East,90,13.0,15.0,13,0.00,,,0.00,WUHU216HW,2013-04-18 16:27:00,
2013-04-18 09:32:00,70.0,17.5,29.85,SE,135,11.0,15.0,14,0.00,,,0.00,WUHU216HW,2013-04-18 16:32:00,
2013-04-18 09:37:00,70.4,19.4,29.85,ENE,68,6.3,13.0,15,0.00,,,0.00,WUHU216HW,2013-04-18 16:37:00,
2013-04-18 09:42:00,70.6,16.2,29.85,East,90,9.4,14.1,13,0.00,,,0.00,WUHU216HW,2013-04-18 16:42:00,
2013-04-18 09:47:00,70.9,19.8,29.86,NE,45,4.5,14.1,15,0.00,,,0.00,WUHU216HW,2013-04-18 16:47:00,
2013-04-18 09:52:00,70.9,16.6,29.86,NE,45,6.3,13.9,13,0.00,,,0.00,WUHU216HW,2013-04-18 16:52:00,
2013-04-18 09:57:00,71.3,20.1,29.86,SE,135,4.0,13.9,15,0.00,,,0.00,WUHU216HW,2013-04-18 16:57:00,
2013-04-18 10:02:00,71.6,18.7,29.86,ESE,113,14.5,14.8,14,0.00,,,0.00,WUHU216HW,2013-04-18 17:02:00,
2013-04-18 10:07:00,71.6,17.1,29.86,ESE,113,9.6,14.8,13,0.00,,,0.00,WUHU216HW,2013-04-18 17:07:00,
2013-04-18 10:12:00,71.6,17.1,29.86,NE,45,6.3,14.5,13,0.00,,,0.00,WUHU216HW,2013-04-18 17:12:00,
2013-04-18 10:17:00,72.4,17.7,29.86,ENE,68,9.8,13.6,13,0.00,,,0.00,WUHU216HW,2013-04-18 17:17:00,
2013-04-18 10:22:00,72.4,19.4,29.86,SE,135,6.0,13.9,14,0.00,,,0.00,WUHU216HW,2013-04-18 17:22:00,
2013-04-18 10:27:00,72.4,17.7,29.86,ENE,68,6.9,13.9,13,0.00,,,0.00,WUHU216HW,2013-04-18 17:27:00,
2013-04-18 10:32:00,72.7,18.0,29.86,East,90,12.1,13.9,13,0.00,,,0.00,WUHU216HW,2013-04-18 17:32:00,
2013-04-18 10:37:00,72.7,18.0,29.86,SE,135,8.1,12.1,13,0.00,,,0.00,WUHU216HW,2013-04-18 17:37:00,
2013-04-18 10:42:00,72.5,17.8,29.86,ESE,113,6.7,13.2,13,0.00,,,0.00,WUHU216HW,2013-04-18 17:42:00,
2013-04-18 10:47:00,73.1,16.7,29.86,ENE,68,7.6,16.1,12,0.00,,,0.00,WUHU216HW,2013-04-18 17:47:00,
2013-04-18 10:52:00,73.1,16.7,29.86,ESE,113,10.5,16.1,12,0.00,,,0.00,WUHU216HW,2013-04-18 17:52:00,
2013-04-18 10:57:00,73.1,18.3,29.85,ESE,113,9.2,13.4,13,0.00,,,0.00,WUHU216HW,2013-04-18 17:57:00,
2013-04-18 11:02:00,73.8,18.9,29.86,ESE,113,7.8,10.7,13,0.00,,,0.00,WUHU216HW,2013-04-18 18:02:00,
2013-04-18 11:07:00,74.2,19.1,29.85,SE,135,8.5,15.0,13,0.00,,,0.00,WUHU216HW,2013-04-18 18:07:00,
2013-04-18 11:12:00,74.2,17.5,29.86,ENE,68,6.3,15.0,12,0.00,,,0.00,WUHU216HW,2013-04-18 18:12:00,
2013-04-18 11:17:00,73.8,18.9,29.85,ESE,113,8.9,13.0,13,0.00,,,0.00,WUHU216HW,2013-04-18 18:17:00,
2013-04-18 11:22:00,74.3,19.3,29.86,NE,45,7.2,10.5,13,0.00,,,0.00,WUHU216HW,2013-04-18 18:22:00,
2013-04-18 11:27:00,74.7,17.8,29.86,SE,135,10.1,10.5,12,0.00,,,0.00,WUHU216HW,2013-04-18 18:27:00,
2013-04-18 11:32:00,74.9,18.0,29.86,ESE,113,9.6,11.0,12,0.00,,,0.00,WUHU216HW,2013-04-18 18:32:00,
2013-04-18 11:37:00,74.7,16.2,29.86,ENE,68,4.9,14.3,11,0.00,,,0.00,WUHU216HW,2013-04-18 18:37:00,
2013-04-18 11:42:00,74.9,18.0,29.86,East,90,4.7,14.3,12,0.00,,,0.00,WUHU216HW,2013-04-18 18:42:00,
2013-04-18 11:47:00,73.8,31.3,29.86,SW,225,3.8,7.8,21,0.00,,,0.00,WUHU216HW,2013-04-18 18:47:00,
2013-04-18 11:52:00,73.3,33.0,29.86,WSW,248,4.0,7.6,23,0.00,,,0.00,WUHU216HW,2013-04-18 18:52:00,
2013-04-18 11:57:00,72.7,34.5,29.86,West,270,4.7,7.6,25,0.00,,,0.00,WUHU216HW,2013-04-18 18:57:00,
2013-04-18 12:02:00,71.6,34.6,29.85,WSW,248,3.4,7.6,26,0.00,,,0.00,WUHU216HW,2013-04-18 19:02:00,
2013-04-18 12:07:00,71.3,34.3,29.86,SSW,203,2.0,6.3,26,0.00,,,0.00,WUHU216HW,2013-04-18 19:07:00,
2013-04-18 12:12:00,70.9,32.9,29.85,WSW,248,1.8,6.3,25,0.00,,,0.00,WUHU216HW,2013-04-18 19:12:00,
2013-04-18 12:17:00,71.1,32.1,29.85,West,270,3.6,5.6,24,0.00,,,0.00,WUHU216HW,2013-04-18 19:17:00,
2013-04-18 12:22:00,71.6,31.5,29.85,NNW,338,4.0,5.6,23,0.00,,,0.00,WUHU216HW,2013-04-18 19:22:00,
2013-04-18 12:27:00,72.0,30.8,29.85,SW,225,2.0,4.7,22,0.00,,,0.00,WUHU216HW,2013-04-18 19:27:00,
2013-04-18 12:32:00,72.0,30.8,29.85,North,0,1.8,4.5,22,0.00,,,0.00,WUHU216HW,2013-04-18 19:32:00,
2013-04-18 12:37:00,71.6,31.5,29.85,NW,315,2.5,4.5,23,0.00,,,0.00,WUHU216HW,2013-04-18 19:37:00,
2013-04-18 12:42:00,72.0,31.9,29.85,NNW,338,1.1,4.0,23,0.00,,,0.00,WUHU216HW,2013-04-18 19:42:00,
2013-04-18 12:47:00,72.9,32.6,29.85,WSW,248,0.4,6.3,23,0.00,,,0.00,WUHU216HW,2013-04-18 19:47:00,
2013-04-18 12:52:00,72.7,31.4,29.84,WSW,248,4.0,6.3,22,0.00,,,0.00,WUHU216HW,2013-04-18 19:52:00,
2013-04-18 12:57:00,72.4,31.2,29.85,WNW,293,2.2,6.3,22,0.00,,,0.00,WUHU216HW,2013-04-18 19:57:00,
2013-04-18 13:02:00,72.4,33.1,29.85,WSW,248,2.5,6.3,24,0.00,,,0.00,WUHU216HW,2013-04-18 20:02:00,
2013-04-18 13:07:00,72.4,30.2,29.84,West,270,4.7,5.8,21,0.00,,,0.00,WUHU216HW,2013-04-18 20:07:00,
2013-04-18 13:12:00,72.9,31.6,29.84,West,270,2.9,5.6,22,0.00,,,0.00,WUHU216HW,2013-04-18 20:12:00,
2013-04-18 13:17:00,72.9,27.9,29.84,WSW,248,3.4,5.6,19,0.00,,,0.00,WUHU216HW,2013-04-18 20:17:00,
2013-04-18 13:22:00,73.1,28.1,29.84,SW,225,2.2,5.6,19,0.00,,,0.00,WUHU216HW,2013-04-18 20:22:00,
2013-04-18 13:27:00,73.4,31.1,29.84,West,270,2.9,6.5,21,0.00,,,0.00,WUHU216HW,2013-04-18 20:27:00,
2013-04-18 13:32:00,73.8,25.4,29.84,SSW,203,4.3,6.5,17,0.00,,,0.00,WUHU216HW,2013-04-18 20:32:00,
2013-04-18 13:37:00,73.6,23.7,29.84,WSW,248,3.4,6.3,16,0.00,,,0.00,WUHU216HW,2013-04-18 20:37:00,
2013-04-18 13:42:00,73.8,23.8,29.83,NW,315,3.6,6.3,16,0.00,,,0.00,WUHU216HW,2013-04-18 20:42:00,
2013-04-18 13:47:00,74.2,24.0,29.84,WNW,293,5.8,5.8,16,0.00,,,0.00,WUHU216HW,2013-04-18 20:47:00,
2013-04-18 13:52:00,74.3,25.8,29.84,West,270,2.9,5.8,17,0.00,,,0.00,WUHU216HW,2013-04-18 20:52:00,
2013-04-18 13:57:00,74.7,27.8,29.83,SSW,203,2.2,4.9,18,0.00,,,0.00,WUHU216HW,2013-04-18 20:57:00,
2013-04-18 14:02:00,74.9,26.3,29.84,NNW,338,4.0,5.1,17,0.00,,,0.00,WUHU216HW,2013-04-18 21:02:00,
2013-04-18 14:07:00,74.9,23.0,29.83,SSW,203,4.9,5.8,15,0.00,,,0.00,WUHU216HW,2013-04-18 21:07:00,
2013-04-18 14:12:00,74.3,24.2,29.83,WSW,248,1.8,6.5,16,0.00,,,0.00,WUHU216HW,2013-04-18 21:12:00,
2013-04-18 14:17:00,74.7,22.9,29.83,NNW,338,5.4,6.5,15,0.00,,,0.00,WUHU216HW,2013-04-18 21:17:00,
2013-04-18 14:22:00,74.5,22.7,29.83,NW,315,3.1,7.2,15,0.00,,,0.00,WUHU216HW,2013-04-18 21:22:00,
2013-04-18 14:27:00,74.9,24.6,29.83,SW,225,6.3,7.2,16,0.00,,,0.00,WUHU216HW,2013-04-18 21:27:00,
2013-04-18 14:32:00,75.2,23.2,29.83,West,270,3.4,6.9,15,0.00,,,0.00,WUHU216HW,2013-04-18 21:32:00,
2013-04-18 14:37:00,75.2,23.2,29.83,WSW,248,5.1,7.6,15,0.00,,,0.00,WUHU216HW,2013-04-18 21:37:00,
2013-04-18 14:42:00,75.2,19.9,29.83,West,270,6.3,9.2,13,0.00,,,0.00,WUHU216HW,2013-04-18 21:42:00,
2013-04-18 14:47:00,75.2,23.2,29.83,WSW,248,4.0,9.2,15,0.00,,,0.00,WUHU216HW,2013-04-18 21:47:00,
2013-04-18 14:52:00,75.1,19.8,29.83,SSW,203,4.7,6.9,13,0.00,,,0.00,WUHU216HW,2013-04-18 21:52:00,
2013-04-18 14:57:00,75.1,19.8,29.82,WSW,248,5.4,7.4,13,0.00,,,0.00,WUHU216HW,2013-04-18 21:57:00,
2013-04-18 15:02:00,74.9,19.6,29.82,West,270,4.5,7.4,13,0.00,,,0.00,WUHU216HW,2013-04-18 22:02:00,
2013-04-18 15:07:00,75.1,19.8,29.82,WNW,293,4.5,7.4,13,0.00,,,0.00,WUHU216HW,2013-04-18 22:07:00,
2013-04-18 15:12:00,74.7,21.2,29.82,WSW,248,4.5,7.4,14,0.00,,,0.00,WUHU216HW,2013-04-18 22:12:00,
2013-04-18 15:17:00,74.7,19.5,29.82,WSW,248,4.0,7.4,13,0.00,,,0.00,WUHU216HW,2013-04-18 22:17:00,
2013-04-18 15:22:00,74.5,19.4,29.82,West,270,5.8,7.4,13,0.00,,,0.00,WUHU216HW,2013-04-18 22:22:00,
2013-04-18 15:27:00,74.3,19.3,29.82,NNW,338,3.4,7.4,13,0.00,,,0.00,WUHU216HW,2013-04-18 22:27:00,
2013-04-18 15:32:00,74.2,17.5,29.82,WSW,248,3.6,6.9,12,0.00,,,0.00,WUHU216HW,2013-04-18 22:32:00,
2013-04-18 15:37:00,74.0,19.0,29.82,West,270,4.7,7.6,13,0.00,,,0.00,WUHU216HW,2013-04-18 22:37:00,
2013-04-18 15:42:00,74.2,19.1,29.82,West,270,7.8,7.8,13,0.00,,,0.00,WUHU216HW,2013-04-18 22:42:00,
2013-04-18 15:47:00,74.0,19.0,29.82,WSW,248,3.4,11.2,13,0.00,,,0.00,WUHU216HW,2013-04-18 22:47:00,
2013-04-18 15:52:00,74.0,19.0,29.82,NNW,338,5.6,11.2,13,0.00,,,0.00,WUHU216HW,2013-04-18 22:52:00,
2013-04-18 15:57:00,74.0,19.0,29.82,WSW,248,6.9,9.2,13,0.00,,,0.00,WUHU216HW,2013-04-18 22:57:00,
2013-04-18 16:02:00,73.3,16.8,29.82,West,270,4.5,9.4,12,0.00,,,0.00,WUHU216HW,2013-04-18 23:02:00,
2013-04-18 16:07:00,72.4,16.1,29.82,NNE,23,6.3,9.4,12,0.00,,,0.00,WUHU216HW,2013-04-18 23:07:00,
2013-04-18 16:12:00,72.4,19.4,29.81,NW,315,4.0,7.6,14,0.00,,,0.00,WUHU216HW,2013-04-18 23:12:00,
2013-04-18 16:17:00,72.2,17.6,29.81,West,270,6.7,8.5,13,0.00,,,0.00,WUHU216HW,2013-04-18 23:17:00,
2013-04-18 16:22:00,71.6,18.7,29.82,WNW,293,3.4,8.5,14,0.00,,,0.00,WUHU216HW,2013-04-18 23:22:00,
2013-04-18 16:27:00,71.5,20.2,29.82,NW,315,4.3,8.5,15,0.00,,,0.00,WUHU216HW,2013-04-18 23:27:00,
2013-04-18 16:32:00,71.1,21.5,29.82,NW,315,5.4,7.4,16,0.00,,,0.00,WUHU216HW,2013-04-18 23:32:00,
2013-04-18 16:37:00,70.4,21.0,29.82,West,270,3.8,8.1,16,0.00,,,0.00,WUHU216HW,2013-04-18 23:37:00,
2013-04-18 16:42:00,70.6,21.1,29.82,NNW,338,3.4,8.1,16,0.00,,,0.00,WUHU216HW,2013-04-18 23:42:00,
2013-04-18 16:47:00,70.2,22.4,29.81,West,270,2.2,6.5,17,0.00,,,0.00,WUHU216HW,2013-04-18 23:47:00,
2013-04-18 16:52:00,69.5,23.5,29.81,West,270,4.0,6.5,18,0.00,,,0.00,WUHU216HW,2013-04-18 23:52:00,
2013-04-18 16:57:00,68.9,24.7,29.81,SSW,203,6.9,7.8,19,0.00,,,0.00,WUHU216HW,2013-04-18 23:57:00,
2013-04-18 17:02:00,68.9,27.3,29.81,WSW,248,6.0,7.8,21,0.00,,,0.00,WUHU216HW,2013-04-19 00:02:00,
2013-04-18 17:07:00,68.6,28.0,29.81,SW,225,4.0,7.6,22,0.00,,,0.00,WUHU216HW,2013-04-19 00:07:00,
2013-04-18 17:12:00,68.8,30.2,29.81,WSW,248,3.4,7.2,24,0.00,,,0.00,WUHU216HW,2013-04-19 00:12:00,
2013-04-18 17:17:00,68.6,32.0,29.81,WNW,293,5.4,7.2,26,0.00,,,0.00,WUHU216HW,2013-04-19 00:17:00,
2013-04-18 17:22:00,68.8,33.1,29.81,NW,315,2.7,5.4,27,0.00,,,0.00,WUHU216HW,2013-04-19 00:22:00,
2013-04-18 17:27:00,68.6,32.0,29.81,SSW,203,3.1,9.2,26,0.00,,,0.00,WUHU216HW,2013-04-19 00:27:00,
2013-04-18 17:32:00,68.6,34.9,29.81,West,270,3.4,9.2,29,0.00,,,0.00,WUHU216HW,2013-04-19 00:32:00,
2013-04-18 17:37:00,68.4,34.8,29.81,West,270,2.5,4.9,29,0.00,,,0.00,WUHU216HW,2013-04-19 00:37:00,
2013-04-18 17:42:00,68.0,34.5,29.81,WSW,248,4.5,4.7,29,0.00,,,0.00,WUHU216HW,2013-04-19 00:42:00,
2013-04-18 17:47:00,68.4,35.8,29.81,West,270,2.5,5.4,30,0.00,,,0.00,WUHU216HW,2013-04-19 00:47:00,
2013-04-18 17:52:00,68.8,35.1,29.81,West,270,4.3,5.4,29,0.00,,,0.00,WUHU216HW,2013-04-19 00:52:00,
2013-04-18 17:57:00,68.4,38.0,29.81,WSW,248,4.0,4.7,33,0.00,,,0.00,WUHU216HW,2013-04-19 00:57:00,
2013-04-18 18:02:00,67.7,38.9,29.81,SW,225,1.1,4.7,35,0.00,,,0.00,WUHU216HW,2013-04-19 01:02:00,
2013-04-18 18:07:00,67.0,41.1,29.81,WSW,248,2.7,4.7,39,0.00,,,0.00,WUHU216HW,2013-04-19 01:07:00,
2013-04-18 18:12:00,65.9,40.9,29.81,SW,225,2.0,4.7,40,0.00,,,0.00,WUHU216HW,2013-04-19 01:12:00,
2013-04-18 18:17:00,64.8,41.7,29.81,WSW,248,1.6,4.7,43,0.00,,,0.00,WUHU216HW,2013-04-19 01:17:00,
2013-04-18 18:22:00,63.9,42.6,29.81,WSW,248,2.5,5.6,46,0.00,,,0.00,WUHU216HW,2013-04-19 01:22:00,
2013-04-18 18:27:00,63.9,43.1,29.81,SW,225,2.5,5.6,47,0.00,,,0.00,WUHU216HW,2013-04-19 01:27:00,
2013-04-18 18:32:00,64.1,42.8,29.81,SW,225,2.5,4.3,46,0.00,,,0.00,WUHU216HW,2013-04-19 01:32:00,
2013-04-18 18:37:00,64.3,43.5,29.81,WNW,293,2.0,4.3,47,0.00,,,0.00,WUHU216HW,2013-04-19 01:37:00,
2013-04-18 18:42:00,64.3,43.5,29.81,WSW,248,3.6,3.6,47,0.00,,,0.00,WUHU216HW,2013-04-19 01:42:00,
2013-04-18 18:47:00,63.9,44.9,29.81,WSW,248,0.9,3.6,50,0.00,,,0.00,WUHU216HW,2013-04-19 01:47:00,
2013-04-18 18:52:00,63.5,44.0,29.81,WSW,248,2.0,4.3,49,0.00,,,0.00,WUHU216HW,2013-04-19 01:52:00,
2013-04-18 18:57:00,63.0,42.9,29.81,West,270,1.1,4.3,48,0.00,,,0.00,WUHU216HW,2013-04-19 01:57:00,
2013-04-18 19:02:00,63.0,41.8,29.81,SW,225,0.9,3.6,46,0.00,,,0.00,WUHU216HW,2013-04-19 02:02:00,
2013-04-18 19:07:00,63.0,42.9,29.81,West,270,2.9,3.6,48,0.00,,,0.00,WUHU216HW,2013-04-19 02:07:00,
2013-04-18 19:12:00,62.5,43.0,29.81,West,270,1.1,2.9,49,0.00,,,0.00,WUHU216HW,2013-04-19 02:12:00,
2013-04-18 19:17:00,62.3,41.7,29.81,SW,225,1.1,3.6,47,0.00,,,0.00,WUHU216HW,2013-04-19 02:17:00,
2013-04-18 19:22:00,62.3,40.5,29.81,West,270,1.8,3.6,45,0.00,,,0.00,WUHU216HW,2013-04-19 02:22:00,
2013-04-18 19:27:00,62.1,41.5,29.81,NW,315,0.9,3.8,47,0.00,,,0.00,WUHU216HW,2013-04-19 02:27:00,
2013-04-18 19:32:00,61.7,40.6,29.81,WSW,248,1.8,3.8,46,0.00,,,0.00,WUHU216HW,2013-04-19 02:32:00,
2013-04-18 19:37:00,61.6,39.9,29.81,WSW,248,3.8,3.8,45,0.00,,,0.00,WUHU216HW,2013-04-19 02:37:00,
2013-04-18 19:42:00,61.6,40.5,29.81,SSW,203,1.3,3.8,46,0.00,,,0.00,WUHU216HW,2013-04-19 02:42:00,
2013-04-18 19:47:00,61.4,39.7,29.81,South,180,1.1,3.8,45,0.00,,,0.00,WUHU216HW,2013-04-19 02:47:00,
2013-04-18 19:52:00,61.0,40.6,29.81,South,180,2.7,3.4,47,0.00,,,0.00,WUHU216HW,2013-04-19 02:52:00,
2013-04-18 19:57:00,60.8,40.4,29.81,SW,225,1.1,3.6,47,0.00,,,0.00,WUHU216HW,2013-04-19 02:57:00,
2013-04-18 20:02:00,60.5,40.7,29.81,WSW,248,1.8,3.6,48,0.00,,,0.00,WUHU216HW,2013-04-19 03:02:00,
2013-04-18 20:07:00,60.3,40.5,29.81,WSW,248,1.1,2.7,48,0.00,,,0.00,WUHU216HW,2013-04-19 03:07:00,
2013-04-18 20:12:00,60.1,39.8,29.81,NW,315,0.0,2.7,47,0.00,,,0.00,WUHU216HW,2013-04-19 03:12:00,
2013-04-18 20:17:00,59.9,40.1,29.81,West,270,1.1,1.3,48,0.00,,,0.00,WUHU216HW,2013-04-19 03:17:00,
2013-04-18 20:22:00,59.8,39.4,29.81,West,270,0.0,1.3,47,0.00,,,0.00,WUHU216HW,2013-04-19 03:22:00,
2013-04-18 20:27:00,59.8,41.6,29.81,West,270,1.1,2.9,51,0.00,,,0.00,WUHU216HW,2013-04-19 03:27:00,
2013-04-18 20:32:00,59.6,42.4,29.81,WSW,248,0.4,2.9,53,0.00,,,0.00,WUHU216HW,2013-04-19 03:32:00,
2013-04-18 20:37:00,59.2,42.6,29.81,SW,225,0.4,2.7,54,0.00,,,0.00,WUHU216HW,2013-04-19 03:37:00,
2013-04-18 20:42:00,58.9,42.7,29.81,West,270,1.1,2.0,55,0.00,,,0.00,WUHU216HW,2013-04-19 03:42:00,
2013-04-18 20:47:00,58.9,43.7,29.81,West,270,0.7,2.5,57,0.00,,,0.00,WUHU216HW,2013-04-19 03:47:00,
2013-04-18 20:52:00,58.7,43.9,29.82,WSW,248,0.4,2.5,58,0.00,,,0.00,WUHU216HW,2013-04-19 03:52:00,
2013-04-18 20:57:00,58.5,42.9,29.82,WSW,248,0.0,2.5,56,0.00,,,0.00,WUHU216HW,2013-04-19 03:57:00,
2013-04-18 21:01:00,58.5,42.9,29.82,SW,225,0.0,1.6,56,0.00,,,0.00,WUHU216HW,2013-04-19 04:01:00,
2013-04-18 21:06:00,58.5,42.4,29.82,SW,225,0.0,1.6,55,0.00,,,0.00,WUHU216HW,2013-04-19 04:06:00,
2013-04-18 21:11:00,58.3,42.7,29.83,SW,225,0.0,0.9,56,0.00,,,0.00,WUHU216HW,2013-04-19 04:11:00,
2013-04-18 21:16:00,58.0,42.3,29.83,SW,225,0.0,0.0,56,0.00,,,0.00,WUHU216HW,2013-04-19 04:16:00,
2013-04-18 21:21:00,57.6,42.0,29.83,ESE,113,0.0,1.1,56,0.00,,,0.00,WUHU216HW,2013-04-19 04:21:00,
2013-04-18 21:26:00,57.4,44.1,29.83,East,90,0.9,1.1,61,0.00,,,0.00,WUHU216HW,2013-04-19 04:26:00,
2013-04-18 21:31:00,57.2,43.1,29.83,ESE,113,1.3,1.8,59,0.00,,,0.00,WUHU216HW,2013-04-19 04:31:00,
2013-04-18 21:36:00,57.1,44.6,29.83,East,90,1.1,1.8,63,0.00,,,0.00,WUHU216HW,2013-04-19 04:36:00,
2013-04-18 21:41:00,56.9,43.2,29.83,SE,135,1.6,2.7,60,0.00,,,0.00,WUHU216HW,2013-04-19 04:41:00,
2013-04-18 21:46:00,56.9,42.3,29.83,SE,135,1.1,2.9,58,0.00,,,0.00,WUHU216HW,2013-04-19 04:46:00,
2013-04-18 21:51:00,56.9,41.8,29.83,SE,135,0.7,2.9,57,0.00,,,0.00,WUHU216HW,2013-04-19 04:51:00,
2013-04-18 21:56:00,56.9,41.8,29.83,East,90,1.1,2.2,57,0.00,,,0.00,WUHU216HW,2013-04-19 04:56:00,
2013-04-18 22:01:00,56.9,41.3,29.84,SE,135,0.9,1.6,56,0.00,,,0.00,WUHU216HW,2013-04-19 05:01:00,
2013-04-18 22:06:00,56.9,40.9,29.84,SE,135,0.2,1.6,55,0.00,,,0.00,WUHU216HW,2013-04-19 05:06:00,
2013-04-18 22:11:00,56.9,40.9,29.84,SSE,158,0.4,1.3,55,0.00,,,0.00,WUHU216HW,2013-04-19 05:11:00,
2013-04-18 22:16:00,56.7,40.7,29.84,SE,135,0.0,1.1,55,0.00,,,0.00,WUHU216HW,2013-04-19 05:16:00,
2013-04-18 22:21:00,56.5,40.5,29.83,North,0,0.4,0.9,55,0.00,,,0.00,WUHU216HW,2013-04-19 05:21:00,
2013-04-18 22:26:00,56.2,39.7,29.83,North,0,0.4,1.1,54,0.00,,,0.00,WUHU216HW,2013-04-19 05:26:00,
2013-04-18 22:31:00,55.6,38.2,29.83,North,0,1.1,1.8,52,0.00,,,0.00,WUHU216HW,2013-04-19 05:31:00,
2013-04-18 22:36:00,55.4,38.0,29.84,North,0,0.2,1.8,52,0.00,,,0.00,WUHU216HW,2013-04-19 05:36:00,
2013-04-18 22:41:00,55.3,37.4,29.83,North,0,0.0,1.8,51,0.00,,,0.00,WUHU216HW,2013-04-19 05:41:00,
2013-04-18 22:46:00,55.3,37.4,29.83,North,0,0.0,0.4,51,0.00,,,0.00,WUHU216HW,2013-04-19 05:46:00,
2013-04-18 22:51:00,55.1,36.7,29.83,NNW,338,0.4,0.4,50,0.00,,,0.00,WUHU216HW,2013-04-19 05:51:00,
2013-04-18 22:56:00,54.5,35.7,29.83,North,0,0.4,0.7,49,0.00,,,0.00,WUHU216HW,2013-04-19 05:56:00,
2013-04-18 23:01:00,54.4,35.0,29.83,North,0,0.4,0.9,48,0.00,,,0.00,WUHU216HW,2013-04-19 06:01:00,
2013-04-18 23:06:00,54.2,34.8,29.83,NNE,23,0.0,1.6,48,0.00,,,0.00,WUHU216HW,2013-04-19 06:06:00,
2013-04-18 23:11:00,54.0,34.7,29.83,NNE,23,0.0,1.6,48,0.00,,,0.00,WUHU216HW,2013-04-19 06:11:00,
2013-04-18 23:16:00,53.6,33.8,29.83,ENE,68,0.7,1.1,47,0.00,,,0.00,WUHU216HW,2013-04-19 06:16:00,
2013-04-18 23:21:00,53.5,34.2,29.83,North,0,0.9,1.1,48,0.00,,,0.00,WUHU216HW,2013-04-19 06:21:00,
2013-04-18 23:26:00,53.3,33.5,29.83,East,90,1.1,2.0,47,0.00,,,0.00,WUHU216HW,2013-04-19 06:26:00,
2013-04-18 23:31:00,53.3,33.5,29.83,NE,45,0.0,2.0,47,0.00,,,0.00,WUHU216HW,2013-04-19 06:31:00,
2013-04-18 23:36:00,53.3,34.0,29.83,North,0,0.0,1.1,48,0.00,,,0.00,WUHU216HW,2013-04-19 06:36:00,
2013-04-18 23:41:00,53.3,34.0,29.83,North,0,0.9,0.9,48,0.00,,,0.00,WUHU216HW,2013-04-19 06:41:00,
2013-04-18 23:46:00,53.3,34.0,29.83,SW,225,0.0,1.1,48,0.00,,,0.00,WUHU216HW,2013-04-19 06:46:00,
2013-04-18 23:51:00,52.7,34.7,29.83,NE,45,1.1,1.3,50,0.00,,,0.00,WUHU216HW,2013-04-19 06:51:00,
2013-04-18 23:56:00,52.4,34.7,29.83,East,90,1.1,2.0,51,0.00,,,0.00,WUHU216HW,2013-04-19 06:56:00,